Regional Weather Roundup
Issued by NWS

Home | Current Version | Previous Version | Text Only | Print | Product List | Glossary On
Versions: 1 2 3 4 5 6 7 8 9 10 11 12 13 14 15 16 17 18 19 20 21 22 23 24 25 26 27 28 29 30 31 32 33 34 35 36 37 38 39 40 41 42 43 44 45 46 47 48 49 50
000
ASUS43 KMPX 261410
RWRMN
WEATHER ROUNDUP FOR MINNESOTA
NATIONAL WEATHER SERVICE TWIN CITIES/CHANHASSEN MN
900 AM CDT THU MAR 26 2015


NOTE: "FAIR" INDICATES FEW OR NO CLOUDS BELOW 12,000 FEET WITH NO
SIGNIFICANT WEATHER AND/OR OBSTRUCTIONS TO VISIBILITY. N/A MEANS
CURRENT SKY AND/OR WEATHER CONDITIONS ARE NOT AVAILABLE.

MNZ060>063-068>070-261500-
   Twin Cities Metro

CITY           SKY/WX    TMP DP  RH WIND       PRES   REMARKS
TWIN CITIES    CLOUDY    29  20  69 NW10      30.10R WCI  20
ST PAUL        CLOUDY    30  18  60 N15       30.11R WCI  19
CRYSTAL        CLOUDY    30  20  66 NW10      30.10R WCI  21
BLAINE         CLOUDY    30  19  64 NW17      30.10R WCI  18
LAKEVILLE      CLOUDY    27  19  74 NW13      30.10R WCI  16
EDEN PRAIRIE   CLOUDY    28  19  69 NW15      30.10R WCI  16
SOUTH ST PAUL  CLOUDY    31  19  61 N13       30.10R WCI  21
LAKE ELMO      CLOUDY    32  21  64 NW12      30.09R WCI  23
$$
MNZ001>005-007-008-013>017-022>024-027-028-261500-
   Northwest Minnesota

CITY           SKY/WX    TMP DP  RH WIND       PRES   REMARKS
BEMIDJI        FLURRIES  21  14  73 N9G16     30.15R WCI  11
HALLOCK        SUNNY     21  16  79 N9        30.27R WCI  11
ROSEAU         SUNNY     19  10  68 N10       30.23S WCI   8
WARROAD        MOSUNNY   18  10  73 N8        30.22S WCI   7
THIEF RVR FALL SUNNY     21  10  63 N14       30.22R WCI   8
CROOKSTON      FLURRIES  25  19  80 N12       30.25R WCI  14
FOSSTON        FLURRIES  21  16  79 N16       30.19R WCI   7
DETROIT LAKES  MIX PCPN  23  21  93 N13       30.17R WCI  11
MOORHEAD       SUNNY     25  21  86 N16       30.23R WCI  12
PARK RAPIDS    CLOUDY    24  15  68 N14       30.13R WCI  12
MAHNOMEN       FLURRIES  22  19  86 N12       30.17S WCI  11
$$
MNZ006-009>011-018-025>026-261500-
   North Central Minnesota

CITY           SKY/WX    TMP DP  RH WIND       PRES   REMARKS
BAUDETTE       SUNNY     19  11  70 N12       30.18R WCI   7
FLAG ISLAND    SUNNY     16   7  67 N15       30.21R WCI   1
INTL FALLS     SUNNY     16   4  59 N13       30.17R WCI   2
WASKISH        LGT SNOW  21  16  79 N5        30.17S WCI  15
BIG FORK       FLURRIES  18  10  73 N9        30.15R WCI   6
LONGVILLE      FLURRIES  21  16  79 N7        30.14R WCI  13
GRAND RAPIDS   CLOUDY    19  10  68 N15       30.11R WCI   5
CRANE LAKE     CLOUDY    12   9  85 N6        30.16R WCI   3
ORR            MOSUNNY   16   1  53 N6        30.11R WCI   7
COOK           CLOUDY    18   9  68 NW10G18   30.12R WCI   6
WALKER         FLURRIES  21  13  72 N8        30.15R WCI  11
$$
MNZ012-019>021-037-261500-
   Northeast Minnesota

CITY           SKY/WX    TMP DP  RH WIND       PRES   REMARKS
DULUTH         FLURRIES  22  12  65 N20G29    30.04S WCI   7
ELY            PTSUNNY   14   5  67 NW15G22   30.08R WCI  -1
HIBBING        MIX PCPN  18   9  68 NW21      30.10R WCI   1
EVELETH        MIX PCPN  21  12  68 NW14      30.10R WCI   8
DULUTH HARBOR  PTSUNNY   27  16  63 N14       30.12R WCI  15
TWO HARBORS    PTSUNNY   25  14  63 N10G16    30.05R WCI  15
SILVER BAY     PTSUNNY   21  10  63 NW8G21    30.05R WCI  12
GRAND MARAIS     N/A     19   7  59 NE8       30.09R WCI   9
G MARAIS ARPRT LGT SNOW  10   1  67 NW15G25   29.97R WCI  -6
$$
MNZ029>031-032-039>041-046>048-054>057-064-261500-
   West Central Minnesota

CITY           SKY/WX    TMP DP  RH WIND       PRES   REMARKS
FERGUS FALLS   SUNNY     23  18  80 N9        30.22R WCI  13
WHEATON        PTSUNNY   25  19  80 NW10      30.23R WCI  15
MORRIS         SUNNY     27  19  74 N12       30.18S WCI  16
ALEXANDRIA     PTSUNNY   23  16  74 NW15      30.16R WCI  10
ELBOW LAKE     CLOUDY    24  19  82 N13       30.18R WCI  12
WADENA         CLOUDY    21  18  86 NW7       30.14R WCI  13
GLENWOOD       SUNNY     25  19  80 NW14      30.15S WCI  13
APPLETON       SUNNY     28  21  74 N13       30.20R WCI  18
BENSON         SUNNY     27  19  74 N10G17    30.18S WCI  17
ORTONVILLE     CLOUDY    27  21  80 N9        30.20S WCI  17
MADISON        CLOUDY    28  25  86 N10       30.20S WCI  19
WILLMAR        FAIR      25  19  80 NW13      30.17S WCI  13
$$
MNZ033>034-036-042>043-049>051-058-059-261500-
   Central Minnesota

CITY           SKY/WX    TMP DP  RH WIND       PRES   REMARKS
ST CLOUD       CLOUDY    27  18  69 NW15      30.11R WCI  15
SAUK CENTRE    FAIR      24  18  77 NW14      30.15R WCI  12
PAYNESVILLE    SUNNY     22  17  82 W9        30.16R WCI  12
AITKIN         MIX PCPN  28  16  59 NW7G17    30.10R WCI  21
PINE RIVER     CLOUDY    25  18  74 N13       30.15R WCI  13
BRAINERD       CLOUDY    26  16  65 N12       30.12R WCI  16
STAPLES        CLOUDY    23  18  80 NW7       30.13S WCI  15
LONG PRAIRIE   CLOUDY    23  19  86 NW10G16   30.14R WCI  12
LITTLE FALLS   CLOUDY    27  19  74 NW7       30.12S WCI  19
LITCHFIELD     SUNNY     27  19  74 NW10      30.15R WCI  17
BUFFALO        CLOUDY    27  19  74 W10       30.13R WCI  17
MAPLE LAKE     CLOUDY    27  22  79 W12       30.14R WCI  17
$$
MNZ037-044-045-052-053-261500-
   East Central Minnesota

CITY           SKY/WX    TMP DP  RH WIND       PRES   REMARKS
PRINCETON      CLOUDY    30  18  59 N13       30.11R WCI  20
MORA           PTSUNNY   28  18  64 N8        30.11R WCI  20
CAMBRIDGE      CLOUDY    30  18  59 NW9       30.08R WCI  22
RUSH CITY      CLOUDY    29  17  59 N14G20    30.09R WCI  19
MOOSE LAKE     CLOUDY    27  18  69 N7G16     30.07R WCI  19
HINCKLEY       CLOUDY    30  19  64 N10G17    30.09R WCI  21
CLOQUET        FLURRIES  23  12  63 NW15G24   30.07S WCI  10
MCGREGOR       CLOUDY    27  18  69 NW13G20   30.10R WCI  16
$$
MNZ071>073-080-081-089-090-097-098-261500-
   Southwest Minnesota

CITY           SKY/WX    TMP DP  RH WIND       PRES   REMARKS
MONTEVIDEO     SUNNY     30  25  80 N16       30.20S WCI  19
GRANITE FALLS  SUNNY     28  23  79 NW9       30.20S WCI  20
CANBY          CLOUDY    29  24  82 N9        30.20F WCI  20
MARSHALL       CLOUDY    28  19  69 N12       30.19S WCI  18
REDWOOD FALLS  SUNNY     29  20  69 NW12      30.17R WCI  19
OLIVIA         SUNNY     28  23  80 NW13      30.16R WCI  18
PIPESTONE      SUNNY     28  25  86 N7        30.14F WCI  21
WINDOM         SUNNY     30  25  80 NW17      30.15S WCI  18
WORTHINGTON    CLOUDY    30  23  74 NW10      30.17S WCI  21
JACKSON        SUNNY     32  27  80 NW14G20   30.15S WCI  22
TRACY          SUNNY     30  24  79 NW13      30.17S WCI  20
SLAYTON        CLOUDY    29  24  79 NW8       30.16S WCI  21
$$
MNZ065>067-074>077-082>085-091>093-261500-
   South Central Minnesota

CITY           SKY/WX    TMP DP  RH WIND       PRES   REMARKS
MANKATO        SUNNY     27  18  69 NW15      30.14R WCI  15
NEW ULM        SUNNY     27  19  74 NW15G22   30.16R WCI  15
ST JAMES       SUNNY     30  25  80 NW16G22   30.16R WCI  19
FAIRMONT       SUNNY     32  21  64 NW18      30.13R WCI  20
GLENCOE        SUNNY     27  21  78 NW12G17   30.13R WCI  17
FARIBAULT      MOSUNNY   27  19  74 NW12G20   30.11R WCI  16
OWATONNA       SUNNY     27  19  74 NW18      30.10R WCI  13
WASECA         SUNNY     25  19  80 NW15      30.12R WCI  12
ALBERT LEA     SUNNY     28  21  74 NW14G21   30.09R WCI  17
$$
MNZ078>079-086>088-094>096-261500-
   Southeast Minnesota

CITY           SKY/WX    TMP DP  RH WIND       PRES   REMARKS
ROCHESTER      PTSUNNY   26  19  74 NW18      30.06R WCI  13
RED WING       CLOUDY    30  19  64 NW9G16    30.08R WCI  22
STANTON        CLOUDY    28  21  76 W13       30.09R WCI  17
DODGE CENTER   MOSUNNY   27  21  80 NW14      30.07R WCI  15
WINONA         CLOUDY    34  27  75 W7        30.06R WCI  28
AUSTIN         SUNNY     27  19  74 NW13      30.08R WCI  16
PRESTON        MOSUNNY   26  19  77 NW14      30.06S WCI  14
$$
ABBREVIATIONS USED IN REMARKS
   TC - TEMPERATURES IN CELSIUS
  WCI - WIND CHILL INDEX
   HX - HEAT INDEX
  VSB - VISIBILITY
$$



USA.gov is the U.S. government's official web portal to all federal, state and local government web resources and services.